Regional Weather Roundup
Issued by NWS

Home | Current Version | Previous Version | Text Only | Print | Product List | Glossary Off
Versions: 1 2 3 4 5 6 7 8 9 10 11 12 13 14 15 16 17 18 19 20 21 22 23 24 25 26 27

000
ASUS45 KTFX 252110
RWRMT
MONTANA REGIONAL WEATHER ROUNDUP
NATIONAL WEATHER SERVICE GREAT FALLS MT
300 PM MDT FRI MAY 25 2018

NOTE: "FAIR" INDICATES FEW OR NO CLOUDS BELOW 12000 FEET WITH NO
SIGNIFICANT WEATHER AND/OR OBSTRUCTIONS TO VISIBILITY.

MTZ001>007-043-252200-
WEST OF THE DIVIDE

CITY           SKY/WX    TMP DP  RH WIND       PRES   REMARKS
KALISPELL      FAIR      77  51  40 S9        29.87F
MISSOULA       FAIR      78  49  35 SW5       29.87F
BUTTE          FAIR      76  40  27 E5        29.98F
MULLAN PASS    PTSUNNY   63  41  44 N3        30.02F
ANACONDA         N/A     77  43  29 SE5       29.93F
DEER LODGE       N/A     75  46  35 CALM      29.95F
HAMILTON         N/A     79  48  34 MISG      29.87F
PLAINS           N/A     82  55  39 CALM      29.86F
RONAN            N/A     77  48  36 CALM      29.90F
THOMPSON FALLS   N/A     82  54  38 W2        29.88F
$$

MTZ008-052>055-252200-
SOUTHWEST MONTANA

CITY           SKY/WX    TMP DP  RH WIND       PRES   REMARKS
BOZEMAN        FAIR      77  50  38 VRB3      29.95F
DILLON         FAIR      74  47  38 SE9       29.95F
ENNIS          MOSUNNY   73  46  38 SE7G14    30.01F
W YELLOWSTONE  FAIR      70  41  35 S13       30.07F
TWIN BRIDGES     N/A     76  40  27 S7        29.94F
$$

MTZ009-010-012-014-046-048-049-054-252200-
EAST SLOPES AND CENTRAL MONTANA

CITY           SKY/WX    TMP DP  RH WIND       PRES   REMARKS
CUT BANK       FAIR      78  41  26 W12G22    29.88F
GREAT FALLS    FAIR      81  45  28 W10G22    29.88F
MALMSTROM AFB  FAIR      78  44  29 SW10      29.89F
HELENA         FAIR      79  48  33 E10       29.89F
CHOTEAU          N/A     79  43  27 NW8       29.91S
WHITE SULPHUR    N/A     73  43  33 NE5       29.96F
$$

MTZ011-013-016-021-045-047-050-051-252200-
NORTH CENTRAL MONTANA

CITY           SKY/WX    TMP DP  RH WIND       PRES   REMARKS
HAVRE          FAIR      82  47  29 SW12      29.81F
LEWISTOWN      FAIR      75  44  33 W8        29.93F
N BAR RANCH    FAIR      73  45  35 N6G12     29.97S
$$

MTZ017>020-022>027-061-062-252200-
NORTHEAST MONTANA

CITY           SKY/WX    TMP DP  RH WIND       PRES   REMARKS
GLASGOW        FAIR      86  47  25 W10       29.78F
GLENDIVE       FAIR      82  53  36 W14G22    29.82F
JORDAN           N/A     82  50  32 W12G23    29.83F
MALTA          SUNNY     84  46  26 W10G20    29.78S
SIDNEY         FAIR      83  52  34 NW9       29.77F
WOLF POINT     FAIR      87  51  28 W14G20    29.77F
PLENTYWOOD       N/A     82  46  28 MISG      29.74S
POPLAR           N/A     84  46  26 MISG      29.77S
$$

MTZ028>42-056>058-252200-
SOUTHCENTRAL AND SOUTHEAST MONTANA

CITY           SKY/WX    TMP DP  RH WIND       PRES   REMARKS
BAKER          FAIR      81  51  35 NW17      29.87S
BILLINGS       FAIR      79  53  40 W6        29.92F
LIVINGSTON     FAIR      78  52  40 N12       29.94F
MILES CITY     FAIR      81  54  39 NW13      29.86F
BIG TIMBER     SUNNY     75  48  38 VRB6G13   29.95F
FORSYTH          N/A     81  48  32 W12       29.86
LAUREL           N/A     79  52  38 VRB5      29.92F
$$

REGIONAL REPORTS...DAKOTAS

CITY           SKY/WX    TMP DP  RH WIND       PRES   REMARKS
WILLISTON      FAIR      86  47  25 W14G28    29.74S
MINOT          FAIR      91  44  19 W16G29    29.66F
DICKINSON      FAIR      86  46  24 NW22G29   29.78F
BEACH          FAIR      82  48  30 W16G24    29.86S
CROSBY         FAIR      86  43  22 W25G35    29.71S
TIOGA          FAIR      84  45  24 W23G35    29.75S
WATFORD CITY   FAIR      86  48  26 W15       29.76S
BISMARCK       FAIR      91  49  23 W17G23    29.71F
GRAND FORKS    PTSUNNY   93  52  24 SW20G26   29.57F HX  90
FARGO          PTSUNNY   91  50  24 SW13G23   29.62F
BUFFALO SD       N/A     83  48  29 W20G30    29.82
RAPID CITY     FAIR      83  54  36 CALM      29.91F
$$

REGIONAL REPORTS...WYOMING/IDAHO/WASHINGTON

CITY           SKY/WX    TMP DP  RH WIND       PRES   REMARKS
GILLETTE       FAIR      81  48  31 VRB6      29.97F
SHERIDAN       FAIR      78  51  38 CALM      29.95F
BUFFALO WY     FAIR      80  50  34 VRB6      29.99F
CODY           FAIR      77  49  37 SE13      29.99F
IDAHO FALLS    FAIR      81  52  36 NE9       29.94F
SALMON         FAIR      77  53  43 VRB3      29.87F
BOISE          FAIR      81  54  39 NE5       29.78F
SPOKANE        PTSUNNY   76  49  38 S8        29.87F
$$

REGIONAL REPORTS...ALBERTA

CITY           SKY/WX    TMP DP  RH WIND       PRES   REMARKS
CALGARY        MOSUNNY   81  41  24 VRB12     29.79F
CARDSTON         N/A     77  46  33 W6          N/A
EDMONTON       MOSUNNY   79  43  27 SW7       29.73F
FORT MCMURRAY  SUNNY     77  55  47 SW6       29.65F
HIGH LEVEL     MOSUNNY   73  36  25 VRB3      29.67F
LETHBRIDGE     MOSUNNY   81  43  26 W13G22    29.80F
LLOYDMINSTER   PTSUNNY   75  55  50 NW12      29.71S
MEDICINE HAT   MOSUNNY   84  41  21 W7        29.78F
MILK RIVER       N/A     81  45  28 W8          N/A
PEACE RIVER    MOSUNNY   72  32  23 W18G28    29.72F
WATERTON GATE    N/A     75  43  31 SW17G25     N/A
$$

REGIONAL REPORTS...SASKATCHEWAN

CITY           SKY/WX    TMP DP  RH WIND       PRES   REMARKS
CORONACH         N/A     82  41  23 W24G30      N/A
CYPRESS HILLS    N/A     75  37  25 W9G18       N/A
ESTEVAN        MOSUNNY   86  46  25 NW20G28   29.67F
MOOSE JAW        N/A     81  43  26 NW21G31     N/A
PRINCE ALBERT  LGT RAIN  64  59  82 NW12G21   29.62R
REGINA         PTSUNNY   79  52  38 NW25G35   29.66F
ROCKGLEN         N/A     79  43  27 NW17G26     N/A
SASKATOON      PTSUNNY   73  57  56 NW18G28   29.66S
SWIFT CURRENT  SUNNY     81  45  28 NW22G31   29.74F
VAL MARIE        N/A     84  37  18 NW16G23     N/A
$$




USA.gov is the U.S. government's official web portal to all federal, state and local government web resources and services.